Location: Saint-Palais-sur-Mer
(45.6429°N, 1.0859°W)
Time: 23:45:00
(UTC+01:00)

Tiros 1 despin weight - Pass Details

Date: 08 February 2026
Orbit: 556 x 593 km, 48.2° (Epoch: 13 March)

Event Time Altitude Azimuth Distance (km) Brightness Sun altitude
Rises 21:01:12 0° 253° (WSW) 2,727 ? -28.4°
Reaches altitude 10° 21:03:27 10° 254° (WSW) 1,835 ? -28.8°
Enters shadow 21:05:48 33° 256° (WSW) 955 ? -29.2°
Maximum altitude 21:07:39 85° 343° (NNW) 566 - -29.5°
Drops below altitude 10° 21:11:53 10° 72° (ENE) 1,854 - -30.2°
Sets 21:14:09 0° 73° (ENE) 2,757 - -30.6°
